FW9465 Weather Reports


Display with metric or nautical units.
time (UTC)temp
F
wind
direction
speed
MPH
gust
MPH
rain 1hr
in
rain 24hr
in
rain mn
in
humidity
%
barometer
mb
20260905024122 88 155 6.0 9.0 0.00 0.09 0.09 54 1012.7
20260905023123 88 156 7.0 10.0 0.00 0.09 0.09 53 1012.7
20260905022139 89 151 7.0 8.0 0.00 0.09 0.09 54 1012.4
20260905015223 90 148 5.0 6.0 0.00 0.09 0.09 52 1012.1
20260905014237 90 142 6.0 8.0 0.00 0.09 0.09 50 1012.0
20260905013322 91 155 5.0 7.0 0.00 0.09 0.09 50 1011.7
20260905012323 91 157 5.0 6.0 0.00 0.09 0.09 49 1011.7
20260905011325 92 149 6.0 7.0 0.00 0.09 0.09 48 1011.5
20260905010324 92 151 7.0 9.0 0.00 0.09 0.09 47 1011.4
20260905005421 93 145 7.0 9.0 0.00 0.09 0.09 45 1011.2
20260905004423 94 137 5.0 8.0 0.00 0.09 0.09 44 1011.1
20260905003437 95 158 5.0 6.0 0.00 0.09 0.09 42 1011.0
20260905002421 96 159 5.0 7.0 0.00 0.09 0.09 41 1011.0
20260905000424 97 150 6.0 11.0 0.00 0.09 0.09 41 1010.8
20260904235423 97 124 4.0 12.0 0.00 0.09 0.09 41 1010.7
20260904234422 98 150 7.0 9.0 0.00 0.09 0.09 40 1010.7
20260904233422 98 134 3.0 5.0 0.00 0.09 0.09 39 1010.6
20260904232421 98 159 9.0 14.0 0.00 0.09 0.09 38 1010.8
20260904231423 98 131 4.0 6.0 0.00 0.09 0.09 38 1010.7
20260904230436 98 139 4.0 7.0 0.00 0.09 0.09 38 1010.5
20260904225521 98 133 8.0 14.0 0.00 0.09 0.09 38 1010.8
20260904224524 99 138 8.0 12.0 0.00 0.09 0.09 38 1010.8
20260904223621 99 151 9.0 13.0 0.00 0.09 0.09 38 1010.8
20260904222622 99 152 4.0 7.0 0.00 0.09 0.09 38 1011.0
20260904221622 99 146 5.0 9.0 0.00 0.09 0.09 37 1011.0
20260904220622 99 155 8.0 11.0 0.00 0.09 0.09 38 1011.0
20260904214636 99 156 2.0 6.0 0.00 0.09 0.09 39 1011.2
20260904213723 98 157 8.0 11.0 0.00 0.09 0.09 39 1011.2
20260904212820 98 161 9.0 13.0 0.00 0.09 0.09 40 1011.4
20260904211822 97 169 8.0 13.0 0.00 0.09 0.09 40 1011.4
20260904210822 97 159 5.0 9.0 0.00 0.09 0.09 40 1011.6
20260904205822 97 168 6.0 9.0 0.00 0.09 0.09 40 1011.8
20260904204837 97 163 10.0 14.0 0.00 0.09 0.09 40 1011.7
20260904203838 97 159 11.0 15.0 0.00 0.09 0.09 40 1012.0
20260904202822 97 160 9.0 15.0 0.00 0.09 0.09 42 1012.1
20260904201921 96 149 7.0 11.0 0.00 0.09 0.09 43 1012.2
20260904200922 96 143 6.0 11.0 0.00 0.09 0.09 44 1012.4
20260904200021 96 106 4.0 7.0 0.00 0.09 0.09 45 1012.4
20260904195020 95 145 9.0 14.0 0.00 0.09 0.09 46 1012.6
20260904194038 95 156 9.0 13.0 0.00 0.09 0.09 48 1012.8
20260904193123 95 131 6.0 11.0 0.00 0.09 0.09 48 1012.9
20260904192220 95 180 4.0 7.0 0.00 0.09 0.09 47 1013.0
20260904191223 94 168 4.0 8.0 0.00 0.09 0.09 47 1013.0
20260904190220 93 162 5.0 8.0 0.00 0.09 0.09 45 1013.1
20260904185221 93 162 8.0 11.0 0.00 0.09 0.09 46 1013.4
20260904184220 93 157 6.0 9.0 0.00 0.09 0.09 46 1013.5
20260904183236 92 169 6.0 10.0 0.00 0.09 0.09 48 1013.6
20260904182322 91 152 5.0 9.0 0.00 0.09 0.09 51 1013.8
20260904181337 91 177 6.0 8.0 0.00 0.09 0.09 54 1013.9
20260904180338 90 143 4.0 7.0 0.00 0.09 0.09 57 1013.9
20260904175338 88 216 4.0 7.0 0.00 0.09 0.09 59 1013.9
20260904174337 87 216 5.0 7.0 0.00 0.09 0.09 59 1014.3
20260904172320 86 211 7.0 11.0 0.00 0.09 0.09 60 1014.6
20260904171322 85 225 4.0 10.0 0.00 0.09 0.09 62 1014.7
20260904170323 84 173 6.0 14.0 0.00 0.09 0.09 65 1014.7
20260904165322 84 211 7.0 12.0 0.00 0.09 0.09 67 1014.8
20260904164337 83 185 2.0 5.0 0.00 0.09 0.09 67 1014.9
20260904163321 82 203 7.0 10.0 0.00 0.09 0.09 68 1014.9
20260904162321 82 203 6.0 13.0 0.00 0.09 0.09 70 1015.0
20260904161420 82 220 10.0 15.0 0.00 0.09 0.09 69 1014.9
20260904160519 81 208 6.0 11.0 0.00 0.09 0.09 69 1014.9
20260904155522 81 201 5.0 9.0 0.00 0.09 0.09 71 1014.8
20260904154620 81 209 4.0 7.0 0.00 0.09 0.09 73 1015.0
20260904153620 80 187 5.0 8.0 0.00 0.09 0.09 76 1014.8
20260904145820 79 176 5.0 10.0 0.00 0.09 0.09 85 1014.7
20260904144919 79 168 6.0 9.0 0.00 0.09 0.09 85 1014.6
20260904143937 79 159 8.0 12.0 0.00 0.09 0.09 87 1014.5
20260904143021 79 160 6.0 8.0 0.00 0.09 0.09 88 1014.6
20260904142036 78 157 5.0 8.0 0.00 0.09 0.09 89 1014.6
20260904141037 78 157 5.0 7.0 0.00 0.09 0.09 90 1014.8
20260904140020 78 160 3.0 6.0 0.00 0.09 0.09 90 1014.5
20260904135020 78 157 5.0 8.0 0.00 0.09 0.09 91 1014.6
20260904134022 77 157 3.0 5.0 0.00 0.09 0.09 90 1014.5
20260904133021 77 157 3.0 5.0 0.00 0.09 0.09 91 1014.4
20260904132021 77 151 4.0 6.0 0.00 0.09 0.09 90 1014.2
20260904131022 77 135 5.0 8.0 0.00 0.09 0.09 91 1014.1
20260904130021 77 150 3.0 5.0 0.00 0.09 0.09 91 1014.1
20260904125120 77 135 3.0 6.0 0.00 0.09 0.09 91 1013.8
20260904124120 77 135 3.0 7.0 0.00 0.09 0.09 91 1013.7
20260904123121 77 140 2.0 3.0 0.00 0.09 0.09 91 1013.5
20260904122219 76 157 5.0 7.0 0.00 0.09 0.09 91 1013.6
20260904121237 76 138 3.0 4.0 0.00 0.09 0.09 92 1013.5
20260904120319 76 145 2.0 4.0 0.00 0.09 0.09 92 1013.4
20260904115335 76 146 5.0 6.0 0.00 0.09 0.09 92 1013.2
20260904114421 76 156 6.0 9.0 0.00 0.09 0.09 91 1013.2
20260904113421 76 155 4.0 8.0 0.00 0.09 0.09 91 1013.1
20260904112436 76 169 4.0 8.0 0.00 0.09 0.09 91 1013.1
20260904111520 76 157 5.0 6.0 0.00 0.09 0.09 92 1013.0
20260904110522 76 150 5.0 6.0 0.00 0.09 0.09 91 1013.2
20260904105619 76 135 3.0 4.0 0.00 0.09 0.09 91 1013.2
20260904104620 76 135 2.0 5.0 0.00 0.09 0.09 92 1013.2
20260904103621 76 144 3.0 5.0 0.00 0.09 0.09 92 1013.0
20260904102719 76 155 5.0 8.0 0.00 0.09 0.09 92 1012.9
20260904101722 76 142 4.0 6.0 0.00 0.09 0.09 92 1013.1
20260904095721 76 135 3.0 5.0 0.00 0.09 0.09 90 1012.9
20260904094721 77 157 0.0 2.0 0.00 0.09 0.09 91 1012.9
20260904092720 76 112 1.0 4.0 0.00 0.09 0.09 91 1012.8
20260904091720 76 152 3.0 6.0 0.00 0.09 0.09 91 1012.6
20260904090819 76 157 4.0 8.0 0.00 0.09 0.09 91 1012.6
20260904085819 76 157 4.0 5.0 0.00 0.09 0.09 90 1012.6
20260904084919 76 158 6.0 7.0 0.00 0.09 0.09 90 1012.7
20260904083923 76 155 3.0 7.0 0.00 0.09 0.09 91 1012.7
20260904082921 76 157 5.0 8.0 0.00 0.09 0.09 91 1012.5
20260904082021 76 168 5.0 7.0 0.00 0.09 0.09 91 1012.8
20260904081035 76 156 8.0 11.0 0.00 0.09 0.09 90 1012.8
20260904080020 76 156 7.0 11.0 0.00 0.09 0.09 89 1012.7
20260904075021 76 157 8.0 11.0 0.00 0.09 0.09 90 1012.6
20260904074019 76 157 6.0 11.0 0.00 0.09 0.09 89 1012.6
20260904073021 76 155 8.0 11.0 0.00 0.09 0.09 89 1012.8
20260904071119 76 165 9.0 14.0 0.00 0.09 0.09 89 1012.6
20260904070121 76 156 9.0 14.0 0.00 0.09 0.09 90 1012.8
20260904065121 76 158 10.0 14.0 0.01 0.09 0.09 90 1012.9
20260904064220 76 156 13.0 18.0 0.03 0.09 0.09 91 1012.8
20260904063237 76 154 10.0 13.0 0.08 0.09 0.09 91 1013.2
20260904062220 75 156 11.0 14.0 0.09 0.09 0.09 91 1013.2
20260904061221 75 161 10.0 14.0 0.09 0.09 0.09 91 1012.9
20260904060319 75 159 9.0 14.0 0.09 0.09 0.09 90 1013.1
20260904055336 76 149 11.0 17.0 0.08 0.08 0.08 88 1013.1
20260904054421 77 155 12.0 16.0 0.06 0.06 0.06 84 1013.0
20260904053519 79 156 12.0 17.0 0.03 0.03 0.02 78 1013.2
20260904052520 79 150 7.0 11.0 0.00 0.00 0.00 75 1013.2
20260904050520 79 152 9.0 12.0 0.00 0.00 0.00 75 1013.1
20260904045531 80 151 9.0 13.0 0.00 0.00 0.00 74 1013.0
20260904043629 80 136 6.0 11.0 0.00 0.00 0.00 73 1013.0
20260904041728 80 146 8.0 11.0 0.00 0.00 0.00 71 1012.8
20260904035829 80 142 7.0 11.0 0.00 0.00 0.00 71 1012.8
20260904034829 80 132 5.0 9.0 0.00 0.00 0.00 70 1012.9
20260904032830 81 133 8.0 13.0 0.00 0.00 0.00 68 1012.9
20260904031831 81 134 10.0 15.0 0.00 0.00 0.00 67 1012.7
20260904030028 82 152 10.0 13.0 0.00 0.00 0.00 66 1012.7
20260904025028 82 137 7.0 9.0 0.00 0.00 0.00 65 1012.5